THORAD DELTA 1 DEB, 42591

Orbit data source: Space-Track

THORAD DELTA 1 DEB, 42591 is space debris in SSO originally from a launch on Fri, 15 Nov 1974 UTC launched from the Air Force Western Test Range (AFWTR). Debris objects in space refer to the collection of defunct objects orbiting the Earth. Examples of debris include non-operational satellites, rocket bodies, and fragments generated from explosions, collisions, or faulty payload assembly.

Loading next visibility...
Identifier
42591, 1974-089BV
Orbit
SSO
Country
Flag of USUS
Related business
Manufacturer
Unknown
Mission
Spacecraft
Bus & Motor
Unknown
Mass
Unknown
Launch date (UTC)
1974-11-15 (51 years ago)
Launch vehicle
Unknown
Launch site
Air Force Western Test Range (AFWTR)
Object type
Payload
Rocket body
Debris
Shape & HBR
Unknown shape, 0.1 m
Radar Cross Section
Small (<0.1 m²)

Expand to show TLE details & history
Last TLE update: 1 day ago

TLE from 1 day ago
0 THORAD DELTA 1 DEB
1 42591U 74089BV  26062.51908037  .00000039  00000-0  64517-3 0  9996
2 42591 101.8127 176.1116 0115618  76.8767 284.5167 12.34033377801262
Epoch: 2026-03-03T12:27Z
TLE epoch observation values (Epoch: 2026-03-03T12:27:28.543Z)
Latitude
-0.00007°
Longitude
-172.05429°
Altitude
1,512.614 km
Speed
7.119 km/s
True Right ascension
11h 44m 26s
True Declination
0° 00' 00"
Sunlit
Object was in full shadow at epoch
Visualization orbit readout
Latitude
Unknown
Longitude
Unknown
Altitude
Unknown
Speed
Unknown
Apparent Right ascension
Unknown
Apparent Declination
Unknown
Sunlit
N/A
Visualization observer readout
Local Sidereal Time
00:26:42
Azimuth
Unknown
Elevation
Unknown
Doppler factor
Unknown
Orbital elements
Apogee altitude
1,620.997 km
Perigee altitude
1,438.142 km
Semi-major axis
7,907.706 km
Eccentricity
0.01156
Inclination
101.8127°
RAAN
176.1116°
Arg. of periapsis
76.8767°
True anomaly
283.22956°
Mean anomaly
284.5167°
Eccentric anomaly
283.87358°
Mean motion
3.08651 °/min
Orbital period
116.64 mins
BSTAR
0.00064517
Loading maneuver chart data...
Computing Atmospheric mass density...

Documentation

Showing up to 5 results
|